FW1417 Weather Reports


time (UTC)temp
C
wind
direction
speed
KPH
gust
KPH
rain 1hr
cm
rain 24hr
cm
rain mn
cm
humidity
%
barometer
mb
20260505170206 25 137 11.3 24.1 0.00 0.00 0.00 41 1006.1
20260505165705 25 138 9.7 24.1 0.00 0.00 0.00 41 1006.2
20260505165205 25 149 8.0 20.9 0.00 0.00 0.00 41 1006.3
20260505164705 25 124 9.7 20.9 0.00 0.00 0.00 41 1006.4
20260505164205 25 165 3.2 19.3 0.00 0.00 0.00 41 1006.4
20260505163205 25 156 6.4 16.1 0.00 0.00 0.00 42 1006.6
20260505162705 25 141 8.0 19.3 0.00 0.00 0.00 43 1006.6
20260505162205 25 147 9.7 20.9 0.00 0.00 0.00 42 1006.7
20260505161705 25 178 9.7 20.9 0.00 0.00 0.00 43 1006.8
20260505161205 25 150 9.7 20.9 0.00 0.00 0.00 42 1006.8
20260505160706 26 147 9.7 20.9 0.00 0.00 0.00 41 1006.9
20260505152706 25 123 4.8 14.5 0.00 0.00 0.00 44 1007.0
20260505152205 24 147 3.2 14.5 0.00 0.00 0.00 45 1007.1
20260505151706 24 144 8.0 14.5 0.00 0.00 0.00 46 1007.1
20260505151205 23 127 6.4 14.5 0.00 0.00 0.00 46 1007.2
20260505150706 23 137 8.0 14.5 0.00 0.00 0.00 46 1007.2
20260505150205 23 141 4.8 14.5 0.00 0.00 0.00 47 1007.3
20260505140205 21 157 8.0 19.3 0.00 0.00 0.00 52 1007.9
20260505130205 20 143 4.8 14.5 0.00 0.00 0.00 55 1007.7
20260505124705 20 152 4.8 11.3 0.00 0.00 0.00 57 1007.5
20260505124205 19 149 4.8 11.3 0.00 0.00 0.00 58 1007.5
20260505123705 19 139 4.8 14.5 0.00 0.00 0.00 58 1007.5
20260505123206 18 165 4.8 16.1 0.00 0.00 0.00 59 1007.5
20260505122705 18 180 8.0 16.1 0.00 0.00 0.00 60 1007.5
20260505122204 18 153 8.0 12.9 0.00 0.00 0.00 62 1007.5
20260505121705 17 191 6.4 11.3 0.00 0.00 0.00 63 1007.5
20260505121204 17 188 6.4 11.3 0.00 0.00 0.00 64 1007.6
20260505120706 17 214 4.8 12.9 0.00 0.00 0.00 65 1007.6
20260505120205 17 149 3.2 9.7 0.00 0.00 0.00 66 1007.6
20260505115705 17 132 3.2 8.0 0.00 0.00 0.00 66 1007.6
20260505115205 17 147 1.6 8.0 0.00 0.00 0.00 66 1007.6
20260505114705 16 132 3.2 12.9 0.00 0.00 0.00 66 1007.6
20260505114206 16 164 4.8 12.9 0.00 0.00 0.00 66 1007.5
20260505113704 16 154 3.2 11.3 0.00 0.00 0.00 66 1007.7
20260505113205 16 145 6.4 19.3 0.00 0.00 0.00 66 1007.8
20260505112205 16 204 4.8 16.1 0.00 0.00 0.00 67 1007.8
20260505111705 16 186 4.8 16.1 0.00 0.00 0.00 67 1007.8
20260505110705 16 177 4.8 9.7 0.00 0.00 0.00 67 1007.6
20260505110205 16 180 3.2 11.3 0.00 0.00 0.00 68 1007.7
20260505102205 15 167 1.6 9.7 0.00 0.00 0.00 69 1007.7
20260505101205 15 190 4.8 11.3 0.00 0.00 0.00 69 1007.6
20260505100705 15 212 3.2 11.3 0.00 0.00 0.00 69 1007.5
20260505100204 15 219 3.2 11.3 0.00 0.00 0.00 68 1007.2
20260505095705 15 134 4.8 11.3 0.00 0.00 0.00 68 1006.9
20260505095204 15 165 4.8 11.3 0.00 0.00 0.00 68 1006.9
20260505094705 15 152 3.2 8.0 0.00 0.00 0.00 68 1006.7
20260505094205 15 165 1.6 8.0 0.00 0.00 0.00 68 1006.4
20260505093705 15 119 3.2 8.0 0.00 0.00 0.00 68 1006.4
20260505092205 15 158 4.8 11.3 0.00 0.00 0.00 67 1006.5
20260505091704 15 191 4.8 11.3 0.00 0.00 0.00 67 1006.5
20260505091205 15 214 3.2 9.7 0.00 0.00 0.00 67 1006.5
20260505090704 15 153 4.8 14.5 0.00 0.00 0.00 67 1006.5
20260505090205 15 215 3.2 14.5 0.00 0.00 0.00 67 1006.5
20260505085704 15 161 3.2 9.7 0.00 0.00 0.00 67 1006.5
20260505085205 15 196 4.8 11.3 0.00 0.00 0.00 66 1006.5
20260505084705 15 165 3.2 11.3 0.00 0.00 0.00 66 1006.5
20260505084204 15 148 4.8 9.7 0.00 0.00 0.00 66 1006.6
20260505083705 15 184 1.6 9.7 0.00 0.00 0.00 66 1006.6
20260505083205 15 184 3.2 9.7 0.00 0.00 0.00 65 1006.5
20260505082705 15 198 3.2 8.0 0.00 0.00 0.00 65 1006.6
20260505082205 15 216 1.6 8.0 0.00 0.00 0.00 65 1006.5
20260505081205 15 169 1.6 8.0 0.00 0.00 0.00 65 1006.5
20260505080704 16 156 3.2 8.0 0.00 0.00 0.00 64 1006.4
20260505080206 16 142 3.2 8.0 0.00 0.00 0.00 64 1006.4
20260505075705 15 148 3.2 8.0 0.00 0.00 0.00 64 1006.5
20260505075204 16 148 1.6 9.7 0.00 0.00 0.00 64 1006.5
20260505074205 16 163 1.6 9.7 0.00 0.00 0.00 63 1006.5
20260505073704 16 149 3.2 9.7 0.00 0.00 0.00 63 1006.5
20260505073205 16 179 3.2 8.0 0.00 0.00 0.00 63 1006.5
20260505072705 16 169 3.2 8.0 0.00 0.00 0.00 63 1006.5
20260505071704 16 194 1.6 8.0 0.00 0.00 0.00 63 1006.5
20260505071204 16 192 1.6 8.0 0.00 0.00 0.00 63 1006.4
20260505070705 16 161 1.6 8.0 0.00 0.00 0.00 63 1006.5
20260505070204 16 151 3.2 8.0 0.00 0.00 0.00 63 1006.5
20260505065705 16 154 1.6 4.8 0.00 0.00 0.00 62 1006.4
20260505065204 16 153 3.2 9.7 0.00 0.00 0.00 62 1006.4
20260505064704 16 163 3.2 11.3 0.00 0.00 0.00 62 1006.4
20260505064204 16 123 3.2 11.3 0.00 0.00 0.00 62 1006.4
20260505063204 16 146 3.2 8.0 0.00 0.00 0.00 62 1006.4
20260505062704 16 181 1.6 4.8 0.00 0.00 0.00 62 1006.5
20260505062205 16 144 3.2 4.8 0.00 0.00 0.00 62 1006.5
20260505061705 16 141 0.0 4.8 0.00 0.00 0.00 61 1006.6
20260505060704 16 142 1.6 4.8 0.00 0.00 0.00 61 1006.7
20260505060204 16 140 1.6 4.8 0.00 0.00 0.00 61 1006.6
20260505055704 16 130 1.6 8.0 0.00 0.00 0.00 61 1006.6
20260505055204 16 147 1.6 8.0 0.00 0.00 0.00 61 1006.7
20260505054704 16 121 3.2 8.0 0.00 0.00 0.00 61 1006.7
20260505054204 16 150 1.6 11.3 0.00 0.00 0.00 61 1006.7
20260505053705 16 147 4.8 11.3 0.00 0.00 0.00 61 1006.6
20260505053205 16 123 4.8 12.9 0.00 0.00 0.00 60 1006.6
20260505052704 16 159 4.8 12.9 0.00 0.00 0.00 60 1006.7
20260505051705 16 146 4.8 14.5 0.00 0.00 0.00 60 1006.8
20260505051205 16 161 4.8 14.5 0.00 0.00 0.00 59 1006.8
20260505050704 16 133 4.8 16.1 0.00 0.00 0.00 59 1006.8
20260505050204 16 157 6.4 16.1 0.00 0.00 0.00 59 1006.9
20260505041707 16 165 6.4 16.1 0.00 0.00 0.00 57 1007.0
20260505040706 16 150 4.8 12.9 0.00 0.00 0.00 57 1007.1
20260505040207 16 162 4.8 14.5 0.00 0.00 0.00 56 1007.1
20260505035708 17 134 6.4 19.3 0.00 0.00 0.00 56 1007.1
20260505035208 17 145 8.0 19.3 0.00 0.00 0.00 56 1007.2
20260505034706 17 146 4.8 16.1 0.00 0.00 0.00 55 1007.1
20260505034207 17 164 8.0 16.1 0.00 0.00 0.00 55 1007.2
20260505033707 17 148 4.8 12.9 0.00 0.00 0.00 55 1007.1
20260505033207 17 159 6.4 14.5 0.00 0.00 0.00 55 1007.1
20260505032206 17 150 3.2 14.5 0.00 0.00 0.00 54 1007.2
20260505031707 17 161 6.4 19.3 0.00 0.00 0.00 53 1007.2
20260505030707 17 148 6.4 19.3 0.00 0.00 0.00 52 1007.3
20260505030206 17 153 4.8 14.5 0.00 0.00 0.00 51 1007.4
20260505025706 17 137 4.8 19.3 0.00 0.00 0.00 51 1007.3
20260505024206 17 109 9.7 16.1 0.00 0.00 0.00 51 1007.3
20260505023706 17 150 6.4 16.1 0.00 0.00 0.00 51 1007.2
20260505023206 17 67 8.0 19.3 0.00 0.00 0.00 51 1007.4
20260505022706 17 123 6.4 19.3 0.00 0.00 0.00 50 1007.4
20260505022207 17 152 6.4 16.1 0.00 0.00 0.00 50 1007.4
20260505021207 18 163 4.8 14.5 0.00 0.00 0.00 49 1007.4
20260505020707 18 188 4.8 14.5 0.00 0.00 0.00 49 1007.4
20260505020207 18 161 6.4 19.3 0.00 0.00 0.00 49 1007.4
20260505015706 18 131 8.0 19.3 0.00 0.00 0.00 49 1007.3
20260505015207 18 165 6.4 12.9 0.00 0.00 0.00 49 1007.3
20260505014706 18 157 4.8 14.5 0.00 0.00 0.00 49 1007.3
20260505013706 18 144 4.8 16.1 0.00 0.00 0.00 48 1007.3
20260505013206 18 157 6.4 16.1 0.00 0.00 0.00 48 1007.3
20260505012706 18 153 8.0 16.1 0.00 0.00 0.00 48 1007.2
20260505012207 18 144 4.8 12.9 0.00 0.00 0.00 48 1007.1
20260505011706 18 83 4.8 16.1 0.00 0.00 0.00 49 1007.2
20260505011206 18 160 8.0 16.1 0.00 0.00 0.00 49 1007.0
20260505010706 18 253 6.4 19.3 0.00 0.00 0.00 49 1007.0
20260505010207 18 160 8.0 19.3 0.00 0.00 0.00 49 1007.0
20260505005706 18 140 8.0 20.9 0.00 0.00 0.00 50 1006.9
20260505005206 18 153 8.0 20.9 0.00 0.00 0.00 51 1006.7
20260505004706 18 146 8.0 19.3 0.00 0.00 0.00 51 1006.7
20260505004206 18 119 9.7 16.1 0.00 0.00 0.00 51 1006.7
20260505003206 18 136 8.0 19.3 0.00 0.00 0.00 50 1006.6
20260505002707 18 146 8.0 19.3 0.00 0.00 0.00 51 1006.5
20260505002206 18 150 8.0 20.9 0.00 0.00 0.00 50 1006.4
20260505001706 18 152 9.7 20.9 0.00 0.00 0.00 50 1006.4
20260505000706 19 137 9.7 16.1 0.00 0.00 0.00 48 1006.2
20260505000206 19 133 8.0 19.3 0.00 0.00 0.00 48 1006.1
20260504235706 19 149 6.4 19.3 0.00 0.00 0.00 47 1006.0
20260504235206 19 137 6.4 19.3 0.00 0.00 0.00 46 1006.0
20260504234206 20 163 4.8 16.1 0.00 0.00 0.00 45 1005.8
20260504233706 20 128 6.4 16.1 0.00 0.00 0.00 45 1005.7
20260504232706 20 133 8.0 19.3 0.00 0.00 0.00 44 1005.6
20260504232206 20 165 9.7 19.3 0.00 0.00 0.00 42 1005.5
20260504231706 20 148 8.0 16.1 0.00 0.00 0.00 42 1005.6
20260504230206 20 150 9.7 19.3 0.00 0.00 0.00 41 1005.3
20260504225706 21 218 8.0 19.3 0.00 0.00 0.00 40 1005.3
20260504225206 21 142 8.0 14.5 0.00 0.00 0.00 39 1005.3
20260504223705 21 142 8.0 19.3 0.00 0.00 0.00 38 1005.4
20260504223206 21 165 8.0 16.1 0.00 0.00 0.00 38 1005.4
20260504222706 21 155 9.7 16.1 0.00 0.00 0.00 37 1005.4
20260504222206 22 90 4.8 16.1 0.00 0.00 0.00 37 1005.4
20260504221705 22 153 6.4 16.1 0.00 0.00 0.00 35 1005.4
20260504221206 22 124 6.4 19.3 0.00 0.00 0.00 35 1005.4
20260504220706 22 143 9.7 19.3 0.00 0.00 0.00 34 1005.4
20260504220206 23 170 4.8 16.1 0.00 0.00 0.00 34 1005.5
20260504215706 23 152 3.2 19.3 0.00 0.00 0.00 33 1005.5
20260504215206 23 154 11.3 20.9 0.00 0.00 0.00 28 1005.5
20260504214706 23 179 6.4 20.9 0.00 0.00 0.00 28 1005.6
20260504214206 23 170 8.0 19.3 0.00 0.00 0.00 28 1005.5
20260504212706 23 232 8.0 20.9 0.00 0.00 0.00 27 1005.6
20260504212206 23 275 8.0 19.3 0.00 0.00 0.00 27 1005.7
20260504211705 23 141 8.0 19.3 0.00 0.00 0.00 28 1005.8
20260504211206 23 213 6.4 20.9 0.00 0.00 0.00 28 1005.7
20260504210706 23 173 8.0 20.9 0.00 0.00 0.00 28 1005.7
20260504210206 23 267 11.3 20.9 0.00 0.00 0.00 28 1005.8
20260504205707 23 201 4.8 16.1 0.00 0.00 0.00 28 1005.6
20260504205206 23 168 9.7 19.3 0.00 0.00 0.00 28 1005.6
20260504204206 24 86 8.0 19.3 0.00 0.00 0.00 27 1005.6
20260504203706 24 216 6.4 19.3 0.00 0.00 0.00 28 1005.7
20260504203206 24 201 8.0 16.1 0.00 0.00 0.00 27 1005.7
20260504202706 23 68 4.8 19.3 0.00 0.00 0.00 28 1005.7
20260504202206 23 135 9.7 20.9 0.00 0.00 0.00 28 1005.6
20260504201706 23 148 8.0 20.9 0.00 0.00 0.00 28 1005.7
20260504201206 23 185 8.0 20.9 0.00 0.00 0.00 27 1005.8
20260504200206 23 291 4.8 24.1 0.00 0.00 0.00 27 1005.8
20260504195706 23 224 8.0 24.1 0.00 0.00 0.00 28 1005.9
20260504195205 23 187 11.3 24.1 0.00 0.00 0.00 27 1006.0
20260504194706 23 167 9.7 32.2 0.00 0.00 0.00 27 1005.9
20260504194206 23 168 8.0 32.2 0.00 0.00 0.00 27 1006.0
20260504193706 23 186 9.7 20.9 0.00 0.00 0.00 27 1006.0
20260504193206 23 165 9.7 20.9 0.00 0.00 0.00 27 1005.9
20260504192705 23 187 6.4 12.9 0.00 0.00 0.00 28 1006.0
20260504192206 23 166 4.8 16.1 0.00 0.00 0.00 28 1006.0
20260504191705 23 94 6.4 22.5 0.00 0.00 0.00 28 1006.2
20260504190706 23 178 8.0 20.9 0.00 0.00 0.00 28 1006.3
20260504190205 23 142 8.0 24.1 0.00 0.00 0.00 28 1006.5
20260504185705 23 218 8.0 24.1 0.00 0.00 0.00 28 1006.6
20260504185206 23 182 9.7 24.1 0.00 0.00 0.00 28 1006.8
20260504184707 23 232 9.7 24.1 0.00 0.00 0.00 28 1006.9
20260504184207 23 190 9.7 24.1 0.00 0.00 0.00 28 1006.8
20260504183705 23 181 9.7 24.1 0.00 0.00 0.00 28 1006.9
20260504183205 23 150 9.7 24.1 0.00 0.00 0.00 28 1006.9
20260504182706 23 199 8.0 24.1 0.00 0.00 0.00 28 1007.0
20260504181705 22 209 6.4 22.5 0.00 0.00 0.00 28 1007.1
20260504181206 22 209 8.0 27.4 0.00 0.00 0.00 29 1007.2
20260504180706 22 234 8.0 32.2 0.00 0.00 0.00 29 1007.2
20260504180206 22 270 8.0 32.2 0.00 0.00 0.00 29 1007.4
20260504175705 22 136 14.5 32.2 0.00 0.00 0.00 29 1007.4
20260504175206 22 167 8.0 24.1 0.00 0.00 0.00 29 1007.6
20260504174706 22 251 9.7 24.1 0.00 0.00 0.00 29 1007.7
20260504174206 22 201 9.7 24.1 0.00 0.00 0.00 30 1007.6
20260504173706 22 165 11.3 20.9 0.00 0.00 0.00 29 1007.6
20260504173206 22 237 8.0 20.9 0.00 0.00 0.00 29 1007.6
20260504172705 22 259 9.7 29.0 0.00 0.00 0.00 29 1007.9
20260504172206 21 210 6.4 29.0 0.00 0.00 0.00 30 1007.7
20260504171206 21 175 12.9 29.0 0.00 0.00 0.00 30 1007.9
20260504170706 21 181 8.0 32.2 0.00 0.00 0.00 30 1008.1